Regional Weather Roundup
Issued by NWS

Home | Current Version | Previous Version | Text Only | Print | Product List | Glossary On
Versions: 1 2 3 4 5 6 7 8 9 10 11 12 13 14 15 16 17 18 19 20 21 22 23 24 25 26 27 28 29 30 31 32 33 34 35 36 37 38 39 40 41 42 43 44 45 46 47 48 49 50
941
ASUS43 KDTX 222201
RWRMI
MICHIGAN HOURLY REGIONAL WEATHER ROUNDUP
NATIONAL WEATHER SERVICE DETROIT/PONTIAC MI
500 PM EST WED NOV 22 2017

NOTE: "FAIR" INDICATES FEW OR NO CLOUDS BELOW 12,000 FEET WITH NO
SIGNIFICANT WEATHER AND/OR OBSTRUCTION TO VISIBILITY.

MIZ047>049-052>055-059>063-066>070-074>076-081>083-222300-
SOUTHEAST LOWER MICHIGAN

CITY           SKY/WX    TMP DP  RH WIND       PRES   REMARKS
ADRIAN         CLEAR     32  17  54 NW5       30.27R WCI  27
ALMA           CLOUDY    32  18  55 CALM      30.26S
ANN ARBOR      CLEAR     32  16  51 W6        30.25R WCI  26
BAD AXE        CLOUDY    30  18  59 W7        30.25S WCI  24
CARO           CLOUDY    32  19  59 CALM      30.25S
DETROIT CITY   CLOUDY    33  16  49 NW3       30.27S
DETROIT        MOCLDY    34  17  50 NW6       30.27R WCI  29
FLINT          CLOUDY    31  17  56 W8        30.27R WCI  23
GROSSE ILE     MOCLDY    33  17  51 CALM      30.26S
HILLSDALE      CLEAR     32  18  55 W7        30.23S WCI  26
HOWELL         CLOUDY    31  19  62 NW3       30.25S

CITY           SKY/WX    TMP DP  RH WIND       PRES   REMARKS
JACKSON        PTCLDY    32  16  51 W6        30.25R WCI  26
LAMBERTVILLE   CLEAR     35  17  48 CALM      30.26S
LANSING        CLOUDY    32  18  56 W12       30.26S WCI  23
LAPEER         CLOUDY    31  17  54 CALM      30.26R
MASON          CLOUDY    33  19  56 NW6       30.26R WCI  27
MONROE         CLEAR     35  18  50 CALM      30.26S
MT. CLEMENS    MOCLDY    32  18  54 NW6       30.26R WCI  27
PONTIAC        CLOUDY    31  17  56 NW9       30.24R WCI  23
PORT HOPE        N/A     31  19  61 SW5       30.23S WCI  26
PORT HURON     CLOUDY    32  16  51 NW3       30.27R
TRI CITIES     CLOUDY    32  19  58 SW6       30.26S WCI  26
MIDLAND        CLOUDY    33  17  53 W3        30.24F
TROY           CLOUDY    35  16  45 NW6       30.28R WCI  30
SAGINAW HB     CLOUDY    32  19  59 W9        30.26S WCI  24
$$
MIZ043>046-050>051-056>058-064>065-071>073-077>080-222300-
SOUTHWEST LOWER MICHIGAN

CITY           SKY/WX    TMP DP  RH WIND       PRES   REMARKS
BATTLE CREEK   MOCLDY    32  20  61 W6        30.25S WCI  26
BENTON HARBOR  CLOUDY    33  22  63 W6        30.27S WCI  28
BIG RAPIDS     CLOUDY    31  17  56 W9        30.21F WCI  23
COLDWATER      MOCLDY    32  17  53 CALM      30.25S
FREMONT        CLOUDY    31  20  62 W5        30.23F WCI  27
HOLLAND        CLOUDY    33  22  63 SW5       30.26S WCI  29
GRAND RAPIDS   CLOUDY    33  23  66 SW7       30.25S WCI  27
IONIA          CLOUDY    32  18  56 W3        30.25S
KALAMAZOO      PTCLDY    32  17  54 NW3       30.26R
LUDINGTON      CLOUDY    30  20  65 SW7       30.22F WCI  23
MARSHALL       CLOUDY    32  17  54 CALM      30.25S
MOUNT PLEASANT CLOUDY    32  17  53 SW6       30.24S WCI  26
MUSKEGON       MOCLDY    32  20  61 SW5       30.25F WCI  27
SOUTH HAVEN    CLOUDY    35  22  61 CALM      30.26F
$$
MIZ016>042-222300-
NORTHERN LOWER MICHIGAN

CITY           SKY/WX    TMP DP  RH WIND       PRES   REMARKS
ALPENA         CLOUDY    32  18  56 SW7       30.21S WCI  26
BEAVER ISLAND  CLOUDY    32  24  71 SW9       30.17F WCI  24
BELLAIRE       CLOUDY    31  21  67 S3        30.20F
CADILLAC       CLOUDY    27  17  64 SW7       30.17F WCI  20
CHARLEVOIX     CLOUDY    32  21  64 SW7       30.21F WCI  26
FRANKFORT      CLOUDY    32  21  63 S9        30.20F WCI  24
GAYLORD        CLOUDY    27  17  66 SW8       30.17S WCI  19
GRAYLING       CLOUDY    28  16  59 SW3       30.20R
HARBOR SPRINGS CLOUDY    32  22  65 SW9       30.18S WCI  24
HOUGHTON LAKE  CLOUDY    29  16  58 SW6       30.20F WCI  23
MANISTEE       CLOUDY    30  20  66 S6        30.22F WCI  24
OSCODA         CLOUDY    32  13  46 W3        30.22F
PELLSTON       CLOUDY    31  24  75 S3        30.18F
ROGERS CITY    CLOUDY    31  19  61 SW6       30.20S WCI  25
TRAVERSE CITY  CLOUDY    32  19  58 VRB6      30.20S WCI  26
$$
MIZ007>008-015-222300-
EASTERN UPPER MICHIGAN

CITY           SKY/WX    TMP DP  RH WIND       PRES   REMARKS
KINROSS        CLOUDY    28  22  78 W7        30.17S WCI  21
MACKINAC ISLAN CLOUDY    31  21  66 NW5       30.17S WCI  26
NEWBERRY       CLOUDY    27  20  75 S5        30.14F WCI  21
S. S. MARIE    CLOUDY    29  22  75 SW8       30.16S WCI  21
MUNISING         N/A     29  19  66 S5        30.14F WCI  24
$$
MIZ004>006-011>014-085-222300-
CENTRAL UPPER MICHIGAN

CITY           SKY/WX    TMP DP  RH WIND       PRES   REMARKS
MANISTIQUE     CLOUDY    28  13  51 SW5       30.16F WCI  23
ESCANABA       CLOUDY    29  17  61 SW8       30.17F WCI  21
SAWYER-GWINN   CLEAR     25  16  68 SW9       30.11F WCI  15
$$
MIZ001>003-009>011-084-222300-
WESTERN UPPER MICHIGAN

CITY           SKY/WX    TMP DP  RH WIND       PRES   REMARKS
IRON MOUNTAIN  CLOUDY    27  12  53 SW8       30.11F WCI  19
HOUGHTON       CLOUDY    26  12  55 SW8       30.06F WCI  18
COPPER HARBOR    N/A     27  13  55 VRB5      30.08F WCI  22
$$

ABBREVIATIONS USED IN REMARKS
   TC - TEMPERATURE IN CELSIUS
  WCI - WIND CHILL INDEX
   HX - HEAT INDEX
  VSB - VISIBILITY





USA.gov is the U.S. government's official web portal to all federal, state and local government web resources and services.